DW7898 Weather Reports


time (UTC)temp
F
wind
direction
speed
knots
gust
knots
rain 1hr
in
rain 24hr
in
rain mn
in
humidity
%
barometer
mb
20260502230345 63 37 1.7 4.3 0.00 0.00 0.00 77 1020.3
20260502225346 63 13 1.7 4.3 0.00 0.00 0.00 76 1020.3
20260502224356 63 48 1.7 3.5 0.00 0.00 0.00 76 1020.3
20260502223338 63 51 1.7 3.5 0.00 0.00 0.00 76 1020.4
20260502222356 63 58 1.7 3.5 0.00 0.00 0.00 76 1020.3
20260502221339 63 45 2.6 3.5 0.00 0.00 0.00 76 1020.6
20260502220343 63 42 1.7 5.2 0.00 0.00 0.00 76 1020.7
20260502215359 63 16 3.5 5.2 0.00 0.00 0.00 76 1020.7
20260502214356 63 40 3.5 5.2 0.00 0.00 0.00 76 1020.8
20260502213358 63 39 1.7 5.2 0.00 0.00 0.00 76 1021.0
20260502212357 63 53 1.7 4.3 0.00 0.00 0.00 75 1020.9
20260502211337 63 50 0.9 3.5 0.00 0.00 0.00 75 1021.1
20260502210339 63 52 2.6 4.3 0.00 0.00 0.00 75 1021.1
20260502205357 63 48 1.7 3.5 0.00 0.00 0.00 75 1021.0
20260502204343 63 48 1.7 3.5 0.00 0.00 0.00 75 1021.1
20260502203349 63 47 1.7 3.5 0.00 0.00 0.00 74 1021.0
20260502202352 63 52 1.7 3.5 0.00 0.00 0.00 74 1021.1
20260502201354 63 50 1.7 4.3 0.00 0.00 0.00 74 1020.7
20260502200354 63 58 0.9 4.3 0.00 0.00 0.00 73 1020.7
20260502195356 63 42 2.6 4.3 0.00 0.00 0.00 73 1020.6
20260502194339 64 54 1.7 4.3 0.00 0.00 0.00 73 1020.6
20260502193347 64 42 1.7 4.3 0.00 0.00 0.00 72 1020.6
20260502192346 64 52 1.7 4.3 0.00 0.00 0.00 72 1020.6
20260502191352 64 56 1.7 2.6 0.00 0.00 0.00 71 1020.6
20260502190359 64 95 1.7 3.5 0.00 0.00 0.00 71 1020.5
20260502185353 64 115 1.7 4.3 0.00 0.00 0.00 71 1020.5
20260502184357 64 124 0.0 2.6 0.00 0.00 0.00 70 1020.6
20260502183356 64 124 3.5 5.2 0.00 0.00 0.00 70 1020.7
20260502182352 65 95 3.5 5.2 0.00 0.00 0.00 68 1020.4
20260502181355 65 109 1.7 4.3 0.00 0.00 0.00 67 1020.5
20260502180339 65 113 1.7 6.1 0.00 0.00 0.00 66 1020.4
20260502170350 65 93 0.9 5.2 0.00 0.00 0.00 62 1020.8
20260502164338 65 127 1.7 6.1 0.00 0.00 0.00 63 1021.2
20260502163357 66 98 3.5 7.0 0.00 0.00 0.00 63 1021.3
20260502162355 66 125 3.5 6.1 0.00 0.00 0.00 63 1021.3
20260502161356 66 114 2.6 7.8 0.00 0.00 0.00 62 1021.6
20260502160356 66 99 2.6 7.8 0.00 0.00 0.00 62 1021.6
20260502152338 67 119 3.5 8.7 0.00 0.00 0.00 60 1021.8
20260502151344 67 104 4.3 7.8 0.00 0.00 0.00 60 1021.8
20260502150347 67 32 2.6 6.1 0.00 0.00 0.00 62 1021.9
20260502130340 67 135 6.1 10.4 0.00 0.00 0.00 63 1023.0
20260502123345 68 112 4.3 11.3 0.00 0.00 0.00 55 1023.2
20260502122340 68 148 3.5 7.0 0.00 0.00 0.00 55 1023.0
20260502121347 69 61 3.5 7.8 0.00 0.00 0.00 55 1023.2
20260502120349 69 123 3.5 8.7 0.00 0.00 0.00 54 1023.2
20260502115347 70 123 3.5 9.6 0.00 0.00 0.00 53 1023.2
20260502113354 71 264 2.6 7.8 0.00 0.00 0.00 48 1023.2
20260502112355 70 114 2.6 7.8 0.00 0.00 0.00 45 1023.3
20260502111354 70 132 2.6 6.1 0.00 0.00 0.00 45 1023.3
20260502110340 70 109 4.3 7.0 0.00 0.00 0.00 43 1023.4
20260502105346 70 178 1.7 6.1 0.00 0.00 0.00 46 1023.6
20260502104356 70 129 1.7 5.2 0.00 0.00 0.00 47 1023.9
20260502103359 69 122 2.6 7.0 0.00 0.00 0.00 47 1023.9
20260502102353 69 137 1.7 4.3 0.00 0.00 0.00 50 1024.0
20260502101338 69 326 1.7 4.3 0.00 0.00 0.00 54 1024.0
20260502100340 69 147 0.9 6.1 0.00 0.00 0.00 55 1024.0
20260502091350 66 343 0.9 5.2 0.00 0.00 0.00 60 1024.4
20260502090341 66 358 2.6 3.5 0.00 0.00 0.00 61 1024.5
20260502071340 63 56 1.7 2.6 0.00 0.00 0.00 69 1024.6
20260502070346 63 56 0.9 2.6 0.00 0.00 0.00 70 1024.7
20260502065345 63 56 0.9 2.6 0.00 0.00 0.00 71 1024.7
20260502064345 62 55 0.9 3.5 0.00 0.00 0.00 71 1024.5
20260502063342 62 62 0.0 2.6 0.00 0.00 0.00 71 1024.5
20260502062357 62 62 0.9 3.5 0.00 0.00 0.00 71 1024.5
20260502061340 62 60 0.9 4.3 0.00 0.00 0.00 71 1024.5
20260502060343 62 58 2.6 5.2 0.00 0.00 0.00 71 1024.4
20260502055358 63 57 2.6 4.3 0.00 0.00 0.00 71 1024.3
20260502054357 63 34 0.9 4.3 0.00 0.00 0.00 71 1024.3
20260502053355 63 58 3.5 5.2 0.00 0.00 0.00 71 1024.2
20260502052354 63 39 2.6 4.3 0.00 0.00 0.00 71 1024.1
20260502051339 63 37 0.9 4.3 0.00 0.00 0.00 71 1024.1
20260502050343 63 44 1.7 4.3 0.00 0.00 0.00 71 1024.1
20260502045348 63 35 0.9 3.5 0.00 0.00 0.00 72 1024.1
20260502044353 63 37 0.0 5.2 0.00 0.00 0.00 72 1024.1
20260502043355 63 37 1.7 5.2 0.00 0.00 0.00 72 1024.0
20260502042351 63 21 3.5 5.2 0.00 0.00 0.00 73 1024.0
20260502041355 63 38 2.6 5.2 0.00 0.00 0.00 73 1023.9
20260502040338 63 10 3.5 5.2 0.00 0.00 0.00 74 1024.0
20260502035356 63 29 2.6 6.1 0.00 0.00 0.00 74 1024.0
20260502034336 63 28 3.5 6.1 0.00 0.00 0.00 73 1024.1
20260502033342 63 34 2.6 6.1 0.00 0.00 0.00 73 1023.9
20260502032358 63 54 2.6 4.3 0.00 0.00 0.00 72 1024.0
20260502031342 63 40 2.6 4.3 0.00 0.00 0.00 72 1024.1
20260502030340 63 41 1.7 4.3 0.00 0.00 0.00 72 1024.2
20260502025344 63 40 2.6 4.3 0.00 0.00 0.00 72 1024.4
20260502024342 63 40 0.9 3.5 0.00 0.00 0.00 72 1024.5
20260502023340 63 41 1.7 3.5 0.00 0.00 0.00 71 1024.4
20260502022355 63 42 1.7 3.5 0.00 0.00 0.00 71 1024.3
20260502021338 63 39 2.6 4.3 0.00 0.00 0.00 71 1024.3
20260502020340 62 55 1.7 5.2 0.00 0.00 0.00 70 1024.4
20260502015343 63 67 2.6 4.3 0.00 0.00 0.00 70 1024.4
20260502014355 63 44 1.7 4.3 0.00 0.00 0.00 70 1024.5
20260502013339 63 43 2.6 5.2 0.00 0.00 0.00 69 1024.3
20260502012357 63 48 3.5 5.2 0.00 0.00 0.00 69 1024.4
20260502011338 63 24 1.7 4.3 0.00 0.00 0.00 69 1024.6
20260502010355 63 42 0.9 3.5 0.00 0.00 0.00 68 1024.6
20260502005351 62 42 3.5 4.3 0.00 0.00 0.00 68 1024.7
20260502004341 63 40 2.6 3.5 0.00 0.00 0.00 68 1024.8
20260502003357 62 37 2.6 5.2 0.00 0.00 0.00 68 1025.0
20260502002355 62 34 2.6 6.1 0.00 0.00 0.00 67 1025.0
20260502001356 63 52 1.7 4.3 0.00 0.00 0.00 68 1025.2
20260502000357 63 37 0.9 3.5 0.00 0.00 0.00 67 1025.2
20260501235339 63 37 0.9 4.3 0.00 0.00 0.00 68 1025.4
20260501234347 63 44 1.7 3.5 0.00 0.00 0.00 67 1025.5
20260501233348 63 45 2.6 4.3 0.00 0.00 0.00 67 1025.6
20260501232344 63 49 2.6 4.3 0.00 0.00 0.00 67 1025.6
20260501231346 63 53 1.7 5.2 0.00 0.00 0.00 67 1025.5